View from above orbital plane
|
View from above satellite
|
Ground track
|
The orbit data is extracted from the following two-line orbital elements,
1 13121U 82027B 21022.91427878 -.00000110 00000-0 -84590-5 0 9995
2 13121 81.1640 46.8782 0009873 38.7475 321.4456 15.09033373115080
Epoch (UTC): | 22 January 2021 21:56:33 |
Eccentricity: | 0.0009873 |
inclination: | 81.1640° |
perigee height: | 532 km |
apogee height: | 546 km |
right ascension of ascending node: | 46.8782° |
argument of perigee: | 38.7475° |
revolutions per day: | 15.09033373 |
mean anomaly at epoch: | 321.4456° |
orbit number at epoch: | 11508 |
The dashed part of the orbit path shows where the satellite is in the earth's shadow,
|
|